Location: Newark
(34.4697°S, 57.8467°W)
Time: 01:22:11
(UTC+00:00)

N. Korean satellite - Pass Details

Date: 19 July 2019
Orbit: 457 x 507 km, 97.2° (Epoch: 23 August)

Event Time Altitude Azimuth Distance (km) Brightness Sun altitude
Rises 09:58:53 0° 339° (NNW) 2,599 10.2 -11.4°
Reaches altitude 10° 10:01:28 10° 320° (NW) 1,720 9.1 -10.9°
Maximum altitude 10:04:05 18° 275° (W) 1,292 8.2 -10.4°
Enters shadow 10:05:53 14° 240° (WSW) 1,515 8.4 -10.0°
